QPF
0.03 0.03 0.01 0.00 0.00 0.00 0.00 0.00 0.00 0.00 0.00 0.00 0.00 0.00 0.00 0.00 0.00 0.00 0.00 0.00 0.00 0.00 0.00 0.00 0.00 0.00 0.00 0.00 0.00 0.00 0.00 0.01 0.02 0.04 0.06 0.08 0.11 0.13 0.12 0.09 0.06 0.04 0.03 0.03
0.02 0.02 0.01 0.00 0.01 0.01 0.00 0.00 0.00 0.00 0.00 0.00 0.00 0.00 0.00 0.00 0.00 0.00 0.00 0.00 0.00 0.00 0.00 0.00 0.00 0.00 0.00 0.00 0.00 0.00 0.00 0.00 0.01 0.02 0.04 0.06 0.08 0.10 0.12 0.11 0.09 0.07 0.06 0.04
0.02 0.01 0.01 0.01 0.01 0.01 0.01 0.00 0.00 0.00 0.00 0.00 0.00 0.00 0.00 0.00 0.00 0.00 0.00 0.00 0.00 0.00 0.00 0.00 0.00 0.00 0.00 0.00 0.00 0.00 0.00 0.00 0.01 0.02 0.03 0.05 0.07 0.09 0.10 0.12 0.11 0.08 0.07 0.06
0.01 0.00 0.00 0.01 0.01 0.01 0.01 0.00 0.00 0.00 0.01 0.01 0.01 0.01 0.00 0.00 0.00 0.00 0.00 0.00 0.00 0.00 0.00 0.00 0.00 0.00 0.00 0.00 0.00 0.00 0.00 0.00 0.00 0.01 0.03 0.04 0.05 0.07 0.07 0.07 0.08 0.08 0.07 0.06
0.01 0.00 0.00 0.01 0.01 0.01 0.01 0.00 0.01 0.01 0.01 0.02 0.01 0.01 0.00 0.00 0.00 0.00 0.00 0.00 0.00 0.00 0.00 0.00 0.00 0.00 0.00 0.00 0.00 0.00 0.00 0.00 0.00 0.01 0.02 0.03 0.04 0.04 0.06 0.06 0.07 0.08 0.07 0.05
0.01 0.00 0.00 0.00 0.00 0.00 0.01 0.01 0.01 0.01 0.02 0.03 0.01 0.01 0.01 0.00 0.00 0.00 0.00 0.00 0.00 0.00 0.00 0.00 0.00 0.00 0.00 0.00 0.00 0.00 0.00 0.00 0.00 0.01 0.02 0.02 0.03 0.04 0.05 0.06 0.07 0.07 0.06 0.05
0.00 0.00 0.00 0.00 0.00 0.00 0.00 0.01 0.03 0.02 0.03 0.01 0.00 0.01 0.01 0.00 0.00 0.00 0.00 0.00 0.00 0.00 0.00 0.00 0.00 0.00 0.00 0.00 0.00 0.00 0.00 0.00 0.01 0.01 0.02 0.03 0.04 0.05 0.05 0.05 0.06 0.07 0.06 0.05
0.00 0.00 0.00 0.00 0.00 0.01 0.01 0.01 0.02 0.02 0.01 0.01 0.00 0.01 0.01 0.00 0.00 0.00 0.00 0.00 0.00 0.00 0.00 0.00 0.00 0.00 0.00 0.00 0.00 0.00 0.00 0.00 0.01 0.01 0.02 0.03 0.04 0.05 0.06 0.05 0.05 0.06 0.06 0.06
0.01 0.00 0.00 0.00 0.00 0.00 0.01 0.01 0.01 0.02 0.01 0.01 0.01 0.01 0.01 0.00 0.00 0.00 0.00 0.00 0.00 0.00 0.00 0.00 0.00 0.00 0.00 0.00 0.00 0.00 0.00 0.00 0.01 0.01 0.02 0.02 0.04 0.05 0.05 0.05 0.05 0.06 0.06 0.06
0.01 0.01 0.00 0.00 0.00 0.00 0.01 0.01 0.02 0.03 0.03 0.01 0.01 0.01 0.01 0.01 0.00 0.00 0.00 0.00 0.00 0.00 0.00 0.00 0.00 0.00 0.00 0.00 0.00 0.00 0.00 0.00 0.00 0.01 0.02 0.02 0.03 0.04 0.05 0.05 0.05 0.05 0.06 0.06
0.01 0.02 0.01 0.00 0.00 0.00 0.01 0.01 0.02 0.03 0.02 0.02 0.01 0.01 0.01 0.01 0.00 0.00 0.00 0.00 0.00 0.00 0.00 0.00 0.00 0.00 0.00 0.00 0.01 0.00 0.00 0.00 0.01 0.01 0.01 0.02 0.02 0.03 0.04 0.05 0.05 0.04 0.04 0.05
0.02 0.03 0.02 0.00 0.00 0.00 0.01 0.01 0.02 0.03 0.02 0.01 0.01 0.01 0.01 0.01 0.01 0.00 0.00 0.00 0.00 0.00 0.00 0.00 0.00 0.00 0.00 0.00 0.01 0.01 0.01 0.01 0.01 0.01 0.01 0.02 0.03 0.03 0.04 0.05 0.04 0.05 0.04 0.04
0.03 0.05 0.03 0.02 0.02 0.01 0.01 0.01 0.01 0.02 0.02 0.02 0.01 0.02 0.01 0.01 0.01 0.01 0.00 0.00 0.00 0.00 0.00 0.00 0.01 0.01 0.01 0.01 0.01 0.01 0.01 0.01 0.01 0.01 0.01 0.02 0.02 0.04 0.04 0.05 0.05 0.05 0.04 0.04
0.04 0.04 0.02 0.01 0.01 0.01 0.01 0.01 0.01 0.02 0.03 0.02 0.01 0.01 0.01 0.01 0.01 0.01 0.00 0.00 0.00 0.00 0.00 0.00 0.00 0.01 0.01 0.01 0.01 0.01 0.01 0.01 0.01 0.01 0.01 0.02 0.02 0.03 0.04 0.05 0.06 0.05 0.05 0.04
0.05 0.03 0.01 0.00 0.00 0.00 0.00 0.00 0.00 0.01 0.01 0.01 0.01 0.01 0.01 0.01 0.01 0.01 0.00 0.00 0.00 0.00 0.00 0.00 0.01 0.01 0.01 0.01 0.01 0.01 0.01 0.01 0.01 0.01 0.01 0.01 0.02 0.03 0.03 0.04 0.05 0.06 0.05 0.04
0.05 0.03 0.01 0.01 0.00 0.00 0.00 0.00 0.00 0.00 0.00 0.00 0.00 0.00 0.00 0.00 0.00 0.00 0.00 0.00 0.00 0.00 0.00 0.00 0.00 0.01 0.01 0.01 0.01 0.01 0.01 0.01 0.01 0.01 0.01 0.01 0.01 0.03 0.03 0.04 0.03 0.04 0.04 0.04
0.03 0.03 0.02 0.01 0.00 0.01 0.01 0.00 0.00 0.00 0.00 0.00 0.00 0.00 0.00 0.00 0.00 0.00 0.00 0.00 0.00 0.00 0.00 0.01 0.01 0.01 0.01 0.01 0.01 0.02 0.01 0.01 0.01 0.01 0.01 0.01 0.01 0.02 0.03 0.03 0.03 0.03 0.03 0.04
0.03 0.03 0.03 0.02 0.01 0.01 0.00 0.00 0.00 0.00 0.00 0.00 0.00 0.00 0.00 0.00 0.00 0.00 0.00 0.00 0.00 0.01 0.01 0.01 0.01 0.01 0.01 0.01 0.02 0.02 0.02 0.01 0.01 0.01 0.02 0.02 0.01 0.02 0.02 0.02 0.03 0.02 0.02 0.03
0.02 0.03 0.04 0.03 0.02 0.01 0.00 0.00 0.00 0.00 0.00 0.00 0.00 0.00 0.00 0.00 0.00 0.00 0.00 0.00 0.01 0.01 0.01 0.01 0.01 0.02 0.01 0.02 0.02 0.03 0.02 0.01 0.01 0.01 0.02 0.02 0.02 0.02 0.02 0.02 0.02 0.02 0.01 0.01
0.01 0.03 0.04 0.03 0.02 0.01 0.00 0.00 0.00 0.00 0.01 0.00 0.00 0.00 0.00 0.00 0.00 0.00 0.00 0.01 0.01 0.01 0.01 0.01 0.01 0.01 0.01 0.01 0.02 0.03 0.02 0.02 0.01 0.01 0.01 0.02 0.02 0.02 0.02 0.02 0.02 0.02 0.02 0.01
0.02 0.04 0.04 0.03 0.02 0.00 0.00 0.00 0.00 0.01 0.01 0.00 0.00 0.00 0.00 0.00 0.00 0.00 0.00 0.00 0.01 0.01 0.01 0.00 0.00 0.00 0.01 0.01 0.01 0.01 0.01 0.01 0.01 0.01 0.01 0.01 0.02 0.02 0.02 0.02 0.03 0.03 0.02 0.02
0.01 0.02 0.02 0.02 0.02 0.01 0.00 0.00 0.00 0.00 0.00 0.00 0.00 0.00 0.00 0.00 0.00 0.00 0.00 0.00 0.00 0.00 0.01 0.01 0.00 0.00 0.00 0.00 0.01 0.01 0.01 0.01 0.01 0.01 0.01 0.01 0.01 0.01 0.02 0.02 0.02 0.03 0.03 0.03
0.01 0.01 0.01 0.01 0.01 0.00 0.00 0.00 0.00 0.00 0.00 0.00 0.00 0.00 0.00 0.00 0.00 0.00 0.00 0.00 0.00 0.00 0.00 0.01 0.00 0.00 0.00 0.01 0.01 0.01 0.01 0.01 0.01 0.01 0.01 0.01 0.01 0.01 0.02 0.02 0.02 0.02 0.02 0.03
0.00 0.00 0.01 0.00 0.00 0.00 0.00 0.00 0.00 0.00 0.00 0.00 0.00 0.00 0.00 0.00 0.00 0.01 0.01 0.01 0.01 0.01 0.01 0.00 0.01 0.01 0.01 0.01 0.01 0.01 0.01 0.01 0.01 0.01 0.01 0.01 0.01 0.01 0.01 0.02 0.02 0.02 0.02 0.02
0.01 0.01 0.01 0.01 0.01 0.00 0.01 0.01 0.01 0.01 0.01 0.01 0.00 0.01 0.01 0.01 0.01 0.01 0.01 0.01 0.01 0.01 0.01 0.01 0.01 0.01 0.01 0.01 0.01 0.01 0.02 0.02 0.01 0.01 0.01 0.01 0.01 0.01 0.01 0.02 0.02 0.02 0.02 0.02
0.01 0.01 0.01 0.01 0.01 0.01 0.01 0.01 0.01 0.01 0.01 0.01 0.01 0.01 0.01 0.01 0.01 0.01 0.01 0.01 0.01 0.01 0.01 0.01 0.01 0.01 0.01 0.01 0.01 0.01 0.02 0.02 0.02 0.01 0.01 0.01 0.01 0.01 0.01 0.01 0.02 0.02 0.02 0.02
MSLP
1013.03 1013.00 1013.02 1013.08 1013.19 1013.36 1013.55 1013.73 1013.86 1013.90 1013.84 1013.70 1013.52 1013.38 1013.36 1013.55 1013.99 1014.65 1015.49 1016.38 1017.20 1017.80 1018.05 1017.91 1017.38 1016.56 1015.57 1014.61 1013.83 1013.38 1013.34 1013.73 1014.47 1015.46 1016.56 1017.65 1018.62 1019.39 1019.96 1020.36 1020.63 1020.85 1021.06 1021.31
1012.51 1012.40 1012.36 1012.41 1012.56 1012.79 1013.07 1013.36 1013.58 1013.71 1013.71 1013.62 1013.47 1013.36 1013.36 1013.58 1014.06 1014.78 1015.69 1016.66 1017.57 1018.26 1018.61 1018.54 1018.07 1017.28 1016.32 1015.34 1014.52 1014.01 1013.90 1014.19 1014.84 1015.74 1016.77 1017.80 1018.72 1019.49 1020.06 1020.48 1020.78 1021.02 1021.25 1021.49
1012.06 1011.87 1011.77 1011.80 1011.96 1012.23 1012.58 1012.94 1013.24 1013.44 1013.51 1013.46 1013.35 1013.27 1013.30 1013.54 1014.03 1014.78 1015.73 1016.77 1017.75 1018.53 1018.98 1019.03 1018.68 1018.01 1017.13 1016.21 1015.41 1014.87 1014.69 1014.88 1015.40 1016.17 1017.06 1017.98 1018.82 1019.53 1020.08 1020.51 1020.83 1021.11 1021.37 1021.64
1011.74 1011.48 1011.33 1011.33 1011.48 1011.76 1012.14 1012.54 1012.90 1013.15 1013.27 1013.27 1013.21 1013.15 1013.21 1013.46 1013.97 1014.73 1015.70 1016.77 1017.81 1018.67 1019.24 1019.43 1019.24 1018.73 1018.00 1017.19 1016.46 1015.92 1015.68 1015.76 1016.12 1016.70 1017.41 1018.15 1018.86 1019.48 1019.99 1020.41 1020.77 1021.08 1021.39 1021.69
1011.58 1011.28 1011.10 1011.06 1011.19 1011.46 1011.83 1012.25 1012.62 1012.90 1013.07 1013.11 1013.09 1013.08 1013.17 1013.44 1013.96 1014.72 1015.69 1016.77 1017.84 1018.78 1019.46 1019.80 1019.79 1019.46 1018.91 1018.25 1017.60 1017.09 1016.79 1016.74 1016.92 1017.28 1017.77 1018.31 1018.85 1019.34 1019.79 1020.19 1020.57 1020.94 1021.30 1021.66
1011.59 1011.28 1011.07 1011.01 1011.11 1011.35 1011.69 1012.08 1012.45 1012.74 1012.93 1013.02 1013.06 1013.10 1013.23 1013.54 1014.07 1014.83 1015.78 1016.86 1017.95 1018.93 1019.70 1020.18 1020.33 1020.19 1019.82 1019.32 1018.77 1018.29 1017.94 1017.76 1017.75 1017.88 1018.13 1018.44 1018.79 1019.15 1019.51 1019.89 1020.28 1020.70 1021.13 1021.55
1011.73 1011.43 1011.23 1011.16 1011.22 1011.41 1011.71 1012.05 1012.38 1012.67 1012.88 1013.01 1013.10 1013.22 1013.41 1013.77 1014.33 1015.09 1016.04 1017.09 1018.18 1019.18 1020.01 1020.58 1020.88 1020.90 1020.70 1020.33 1019.88 1019.43 1019.03 1018.73 1018.54 1018.46 1018.48 1018.57 1018.73 1018.94 1019.23 1019.57 1019.97 1020.43 1020.91 1021.40
1011.98 1011.71 1011.53 1011.44 1011.47 1011.61 1011.83 1012.11 1012.39 1012.65 1012.86 1013.04 1013.20 1013.40 1013.69 1014.12 1014.72 1015.50 1016.43 1017.46 1018.52 1019.51 1020.36 1020.99 1021.39 1021.53 1021.46 1021.21 1020.85 1020.43 1020.00 1019.61 1019.27 1019.00 1018.82 1018.72 1018.71 1018.80 1019.00 1019.30 1019.70 1020.18 1020.70 1021.24
1012.28 1012.06 1011.90 1011.81 1011.80 1011.87 1012.01 1012.19 1012.40 1012.61 1012.82 1013.04 1013.28 1013.57 1013.96 1014.48 1015.15 1015.97 1016.90 1017.91 1018.93 1019.88 1020.72 1021.37 1021.81 1022.04 1022.06 1021.91 1021.62 1021.23 1020.80 1020.34 1019.91 1019.51 1019.18 1018.93 1018.79 1018.78 1018.90 1019.15 1019.53 1020.00 1020.54 1021.09
1012.62 1012.45 1012.31 1012.20 1012.13 1012.11 1012.14 1012.21 1012.32 1012.47 1012.66 1012.91 1013.22 1013.62 1014.13 1014.77 1015.53 1016.40 1017.35 1018.34 1019.31 1020.23 1021.02 1021.65 1022.11 1022.38 1022.46 1022.38 1022.16 1021.82 1021.41 1020.94 1020.46 1019.99 1019.57 1019.23 1019.00 1018.91 1018.96 1019.16 1019.49 1019.93 1020.43 1020.96
1013.00 1012.85 1012.71 1012.56 1012.42 1012.29 1012.19 1012.12 1012.10 1012.16 1012.31 1012.57 1012.95 1013.45 1014.09 1014.86 1015.73 1016.67 1017.66 1018.66 1019.60 1020.47 1021.22 1021.82 1022.27 1022.55 1022.68 1022.65 1022.50 1022.23 1021.86 1021.42 1020.95 1020.47 1020.02 1019.64 1019.37 1019.21 1019.20 1019.33 1019.59 1019.95 1020.38 1020.84
1013.44 1013.29 1013.12 1012.91 1012.66 1012.39 1012.12 1011.89 1011.73 1011.68 1011.77 1012.02 1012.44 1013.04 1013.80 1014.71 1015.70 1016.75 1017.80 1018.82 1019.76 1020.60 1021.31 1021.88 1022.31 1022.60 1022.76 1022.79 1022.70 1022.51 1022.21 1021.85 1021.43 1020.99 1020.56 1020.17 1019.87 1019.68 1019.60 1019.66 1019.82 1020.07 1020.38 1020.72
1013.98 1013.79 1013.56 1013.25 1012.87 1012.44 1011.99 1011.57 1011.24 1011.06 1011.06 1011.29 1011.75 1012.43 1013.31 1014.34 1015.47 1016.63 1017.76 1018.83 1019.79 1020.62 1021.31 1021.87 1022.29 1022.59 1022.79 1022.87 1022.86 1022.75 1022.55 1022.27 1021.93 1021.55 1021.17 1020.80 1020.49 1020.27 1020.13 1020.09 1020.14 1020.26 1020.43 1020.63
1014.62 1014.38 1014.06 1013.63 1013.10 1012.50 1011.85 1011.24 1010.74 1010.41 1010.32 1010.50 1010.98 1011.72 1012.70 1013.85 1015.10 1016.38 1017.61 1018.75 1019.75 1020.61 1021.31 1021.86 1022.30 1022.63 1022.86 1023.01 1023.07 1023.05 1022.94 1022.75 1022.50 1022.19 1021.85 1021.51 1021.20 1020.94 1020.74 1020.61 1020.54 1020.53 1020.55 1020.60
1015.38 1015.07 1014.64 1014.09 1013.40 1012.62 1011.79 1011.00 1010.33 1009.86 1009.68 1009.81 1010.28 1011.07 1012.13 1013.38 1014.74 1016.13 1017.45 1018.67 1019.73 1020.63 1021.36 1021.94 1022.40 1022.76 1023.04 1023.25 1023.39 1023.45 1023.42 1023.32 1023.13 1022.89 1022.59 1022.28 1021.96 1021.66 1021.40 1021.18 1021.00 1020.86 1020.75 1020.67
1016.22 1015.83 1015.31 1014.63 1013.80 1012.87 1011.88 1010.93 1010.12 1009.54 1009.27 1009.36 1009.82 1010.63 1011.74 1013.07 1014.52 1015.99 1017.39 1018.68 1019.80 1020.74 1021.52 1022.14 1022.64 1023.05 1023.38 1023.64 1023.84 1023.97 1024.01 1023.96 1023.84 1023.63 1023.36 1023.05 1022.72 1022.39 1022.08 1021.79 1021.53 1021.29 1021.07 1020.89
1017.07 1016.61 1016.00 1015.23 1014.30 1013.26 1012.16 1011.11 1010.20 1009.54 1009.21 1009.26 1009.70 1010.52 1011.66 1013.03 1014.52 1016.04 1017.50 1018.83 1020.00 1020.99 1021.80 1022.47 1023.01 1023.47 1023.85 1024.16 1024.41 1024.59 1024.68 1024.67 1024.58 1024.39 1024.13 1023.82 1023.47 1023.12 1022.76 1022.42 1022.11 1021.81 1021.53 1021.28
1017.83 1017.33 1016.68 1015.85 1014.86 1013.76 1012.62 1011.51 1010.57 1009.87 1009.52 1009.55 1009.98 1010.80 1011.93 1013.30 1014.80 1016.33 1017.80 1019.15 1020.34 1021.36 1022.20 1022.90 1023.49 1023.99 1024.41 1024.77 1025.06 1025.27 1025.39 1025.41 1025.32 1025.14 1024.88 1024.55 1024.19 1023.82 1023.45 1023.09 1022.75 1022.44 1022.14 1021.86
1018.43 1017.91 1017.24 1016.40 1015.41 1014.32 1013.18 1012.10 1011.17 1010.50 1010.15 1010.18 1010.61 1011.40 1012.51 1013.85 1015.31 1016.81 1018.26 1019.59 1020.77 1021.79 1022.65 1023.38 1024.00 1024.53 1025.00 1025.40 1025.72 1025.96 1026.10 1026.12 1026.04 1025.85 1025.58 1025.25 1024.89 1024.51 1024.14 1023.79 1023.46 1023.16 1022.87 1022.60
1018.78 1018.27 1017.62 1016.81 1015.88 1014.84 1013.78 1012.77 1011.91 1011.29 1010.99 1011.04 1011.47 1012.23 1013.29 1014.57 1015.97 1017.40 1018.78 1020.06 1021.21 1022.21 1023.08 1023.82 1024.47 1025.05 1025.55 1025.99 1026.34 1026.61 1026.76 1026.80 1026.72 1026.53 1026.26 1025.93 1025.57 1025.20 1024.85 1024.52 1024.22 1023.95 1023.69 1023.45
1018.86 1018.38 1017.77 1017.03 1016.18 1015.25 1014.30 1013.41 1012.66 1012.14 1011.90 1011.99 1012.41 1013.15 1014.15 1015.34 1016.65 1017.99 1019.28 1020.50 1021.60 1022.57 1023.43 1024.19 1024.87 1025.48 1026.03 1026.51 1026.90 1027.20 1027.38 1027.44 1027.37 1027.20 1026.93 1026.61 1026.26 1025.91 1025.58 1025.28 1025.02 1024.78 1024.56 1024.34
1018.69 1018.24 1017.69 1017.04 1016.29 1015.49 1014.69 1013.94 1013.32 1012.91 1012.75 1012.88 1013.31 1014.01 1014.95 1016.05 1017.26 1018.49 1019.70 1020.84 1021.89 1022.83 1023.69 1024.47 1025.18 1025.83 1026.43 1026.96 1027.41 1027.75 1027.97 1028.06 1028.02 1027.86 1027.61 1027.31 1026.98 1026.64 1026.34 1026.07 1025.83 1025.63 1025.43 1025.22
1018.32 1017.89 1017.40 1016.84 1016.21 1015.55 1014.89 1014.30 1013.83 1013.53 1013.46 1013.64 1014.07 1014.74 1015.60 1016.62 1017.73 1018.87 1019.99 1021.06 1022.06 1023.00 1023.86 1024.66 1025.42 1026.12 1026.78 1027.37 1027.88 1028.28 1028.54 1028.67 1028.67 1028.55 1028.33 1028.05 1027.74 1027.42 1027.13 1026.87 1026.65 1026.46 1026.26 1026.06
1017.80 1017.40 1016.96 1016.48 1015.96 1015.44 1014.93 1014.49 1014.15 1013.97 1013.98 1014.20 1014.64 1015.28 1016.09 1017.03 1018.05 1019.11 1020.16 1021.18 1022.16 1023.08 1023.97 1024.81 1025.61 1026.38 1027.11 1027.76 1028.33 1028.79 1029.12 1029.30 1029.35 1029.27 1029.08 1028.83 1028.53 1028.23 1027.95 1027.69 1027.46 1027.25 1027.05 1026.83
1017.22 1016.82 1016.42 1016.02 1015.61 1015.21 1014.84 1014.53 1014.33 1014.25 1014.33 1014.60 1015.04 1015.65 1016.41 1017.29 1018.25 1019.24 1020.24 1021.24 1022.20 1023.14 1024.06 1024.94 1025.80 1026.64 1027.42 1028.15 1028.78 1029.30 1029.69 1029.93 1030.03 1029.99 1029.85 1029.62 1029.35 1029.05 1028.77 1028.49 1028.24 1028.01 1027.78 1027.53
1016.60 1016.21 1015.84 1015.51 1015.19 1014.91 1014.66 1014.48 1014.39 1014.41 1014.56 1014.86 1015.31 1015.91 1016.63 1017.46 1018.37 1019.32 1020.29 1021.27 1022.24 1023.20 1024.15 1025.08 1026.00 1026.88 1027.73 1028.50 1029.19 1029.77 1030.21 1030.51 1030.66 1030.68 1030.58 1030.39 1030.14 1029.85 1029.56 1029.27 1028.99 1028.72 1028.45 1028.17
Thickness
5533 5527 5526 5533 5537 5540 5540 5537 5536 5538 5539 5535 5536 5540 5546 5546 5544 5543 5544 5544 5544 5543 5542 5539 5538 5537 5537 5537 5538 5538 5538 5538 5539 5538 5538 5538 5538 5539 5539 5539 5539 5539 5539 5539
5520 5516 5526 5530 5529 5529 5527 5525 5526 5528 5531 5528 5529 5535 5543 5541 5541 5541 5540 5539 5538 5536 5533 5531 5530 5528 5528 5528 5528 5529 5529 5529 5529 5530 5530 5529 5529 5529 5529 5529 5529 5529 5529 5529
5510 5514 5519 5519 5517 5517 5518 5516 5516 5515 5516 5518 5518 5528 5538 5538 5538 5537 5536 5534 5533 5531 5527 5524 5522 5520 5519 5518 5519 5520 5519 5519 5520 5521 5520 5520 5519 5519 5518 5519 5519 5519 5519 5519
5503 5507 5508 5506 5506 5507 5505 5508 5507 5504 5500 5503 5509 5509 5533 5533 5528 5529 5527 5526 5525 5523 5520 5517 5514 5512 5510 5509 5509 5509 5509 5509 5510 5511 5511 5510 5510 5509 5509 5509 5509 5509 5508 5509
5494 5496 5495 5494 5496 5497 5494 5497 5496 5496 5494 5492 5501 5496 5520 5526 5521 5520 5521 5520 5518 5515 5511 5508 5506 5503 5501 5500 5499 5498 5499 5499 5499 5500 5501 5500 5500 5500 5500 5500 5499 5499 5499 5498
5485 5487 5487 5487 5488 5489 5486 5485 5485 5485 5482 5478 5497 5492 5510 5516 5517 5515 5513 5510 5507 5504 5501 5498 5495 5493 5491 5489 5488 5487 5487 5488 5489 5489 5490 5491 5490 5490 5489 5489 5489 5488 5488 5488
5476 5477 5478 5478 5477 5478 5477 5471 5465 5464 5464 5478 5495 5489 5500 5512 5511 5507 5502 5499 5495 5492 5489 5487 5484 5481 5479 5477 5476 5476 5476 5477 5478 5479 5479 5480 5481 5480 5480 5479 5478 5478 5478 5477
5464 5464 5467 5467 5468 5466 5469 5469 5462 5460 5468 5480 5478 5483 5497 5499 5496 5495 5493 5488 5485 5481 5478 5476 5474 5471 5469 5467 5465 5465 5465 5465 5466 5467 5468 5469 5470 5470 5469 5469 5468 5468 5468 5467
5459 5457 5460 5460 5461 5460 5459 5457 5463 5456 5451 5453 5474 5487 5486 5488 5484 5482 5480 5476 5472 5470 5468 5465 5462 5460 5457 5455 5454 5454 5454 5454 5455 5456 5456 5457 5458 5458 5458 5458 5457 5457 5457 5457
5448 5439 5447 5449 5448 5448 5450 5452 5444 5443 5441 5450 5471 5481 5485 5477 5473 5470 5467 5464 5462 5460 5457 5454 5451 5448 5446 5444 5443 5443 5443 5443 5443 5444 5444 5445 5446 5447 5447 5447 5446 5445 5445 5445
5436 5426 5431 5434 5433 5437 5437 5437 5439 5440 5444 5449 5454 5471 5478 5474 5469 5463 5460 5457 5453 5449 5446 5443 5440 5437 5434 5432 5431 5431 5431 5431 5431 5431 5432 5432 5433 5434 5435 5434 5433 5433 5434 5433
5423 5421 5417 5424 5425 5425 5428 5431 5430 5425 5429 5439 5446 5455 5465 5464 5460 5457 5452 5447 5443 5438 5433 5430 5428 5425 5423 5420 5419 5419 5419 5419 5419 5419 5420 5420 5421 5422 5422 5422 5421 5421 5422 5421
5411 5407 5403 5411 5409 5406 5409 5415 5415 5414 5417 5422 5427 5444 5454 5450 5448 5444 5439 5435 5430 5426 5422 5418 5415 5413 5411 5409 5408 5407 5407 5407 5408 5408 5408 5408 5409 5409 5410 5410 5409 5409 5409 5408
5403 5396 5398 5409 5415 5405 5399 5404 5405 5401 5402 5413 5425 5436 5442 5439 5436 5432 5427 5423 5418 5414 5410 5406 5403 5401 5400 5398 5397 5396 5396 5396 5396 5396 5396 5396 5397 5398 5397 5397 5397 5396 5395 5395
5388 5383 5382 5387 5393 5395 5396 5396 5396 5393 5400 5405 5421 5424 5432 5430 5424 5420 5416 5413 5409 5405 5401 5397 5393 5390 5389 5387 5386 5385 5384 5384 5384 5384 5384 5384 5385 5385 5385 5385 5384 5383 5382 5382
5374 5371 5368 5368 5378 5381 5381 5389 5391 5392 5394 5397 5403 5411 5422 5419 5414 5409 5406 5403 5398 5395 5391 5388 5384 5381 5379 5377 5375 5374 5373 5372 5372 5371 5371 5371 5371 5371 5371 5371 5370 5370 5369 5368
5361 5357 5358 5363 5363 5364 5365 5386 5388 5388 5392 5394 5396 5407 5408 5404 5400 5396 5394 5391 5388 5384 5381 5378 5374 5371 5369 5366 5365 5362 5361 5360 5359 5358 5358 5358 5357 5357 5357 5358 5357 5356 5355 5355
5351 5349 5349 5346 5347 5349 5395 5402 5396 5390 5390 5390 5394 5394 5393 5390 5386 5383 5382 5378 5375 5372 5369 5366 5363 5360 5358 5355 5353 5351 5349 5347 5346 5345 5345 5344 5343 5343 5343 5343 5343 5342 5341 5341
5348 5346 5344 5339 5342 5359 5386 5387 5382 5378 5380 5382 5380 5381 5379 5376 5372 5372 5370 5366 5362 5359 5356 5353 5349 5346 5344 5342 5339 5338 5336 5335 5333 5333 5332 5330 5329 5329 5329 5328 5328 5328 5328 5327
5338 5336 5334 5334 5336 5342 5382 5373 5373 5370 5368 5376 5373 5370 5366 5362 5358 5363 5359 5354 5349 5345 5341 5338 5335 5332 5330 5328 5326 5324 5323 5322 5320 5318 5317 5316 5316 5315 5315 5314 5314 5314 5314 5314
5319 5320 5322 5327 5330 5348 5366 5358 5359 5353 5365 5366 5363 5359 5354 5351 5350 5348 5343 5338 5334 5330 5327 5324 5321 5319 5316 5314 5312 5310 5309 5307 5305 5304 5303 5302 5301 5301 5301 5300 5300 5299 5299 5299
5322 5318 5316 5321 5323 5342 5348 5345 5346 5350 5349 5347 5344 5342 5340 5337 5335 5330 5327 5322 5319 5315 5312 5310 5308 5305 5303 5300 5298 5296 5295 5293 5291 5289 5288 5287 5286 5286 5286 5285 5285 5285 5285 5285
5329 5334 5333 5334 5342 5346 5334 5332 5330 5330 5331 5329 5327 5325 5322 5320 5317 5315 5311 5308 5305 5301 5298 5296 5293 5291 5288 5285 5283 5281 5280 5277 5276 5274 5273 5272 5272 5271 5271 5270 5270 5270 5270 5270
5323 5323 5325 5326 5333 5329 5322 5320 5317 5315 5314 5314 5312 5310 5308 5305 5303 5299 5296 5293 5290 5287 5284 5282 5278 5275 5273 5270 5269 5266 5265 5262 5261 5260 5259 5259 5258 5257 5256 5255 5255 5255 5255 5255
5315 5306 5308 5312 5316 5314 5312 5309 5307 5304 5302 5299 5298 5296 5294 5292 5289 5285 5283 5279 5276 5273 5269 5266 5264 5261 5259 5256 5254 5253 5250 5248 5247 5247 5246 5246 5245 5243 5243 5242 5241 5241 5241 5241
5301 5296 5300 5312 5305 5302 5306 5301 5298 5293 5290 5287 5285 5282 5279 5277 5275 5272 5268 5264 5261 5257 5254 5251 5247 5245 5243 5242 5240 5238 5236 5234 5233 5234 5233 5232 5231 5230 5229 5228 5229 5229 5229 5231